SL-14 DEB

Satellite information

Favourite Embed

Satellite Type and Status

DEBRISIN ORBIT

Key statistics

Satellite SL-14 DEB at a glance.

Uptime

14080

Days in orbit

Revolutions

≈ 14.0

Per day

Orbit

LEO

Low Earth Orbit

Inclination

82.6

Latest

Satellite identification and parameters

Extended collection of information and parameters for SL-14 DEB.

Object identification

Identified? True

Debris? True

Object name: SL-14 DEB

International designator: 1986-101C

Object number (NORAD): 17268

Object ID (CCSDS): 17268

Country: COMMONWEALTH OF INDEPENDENT STATES (CIS)

Current information (Y/N): Y

RCS size: SMALL

Orbital parameters

Period: 103.0 minutes

Inclination: 82.6135 deg

SMA: 7278.669 km

Apoapsis: 921.43 km

Periapsis: 879.639 km

RAAN: 168.6132 deg

Eccentricy: 0.0028708

Argument of periapsis: 122.8938 deg

Mean anomaly: 1.1484 deg

Mean motion: 13.98056655 rev/day

Mean motion (dot): 0.00000467 rev/day2

B* drag term: 0.00031677 1/REarth

Two-line elements (TLE)

Creation date: July 5, 2025, 5:45 p.m.

Reference frame: TEME

Reference center: EARTH

Epoch: July 5, 2025, 8:58 a.m. UTC

TLE line 0: 0 SL-14 DEB

TLE line 1: 1 17268U 86101C 25186.37404713 .00000467 00000-0 31677-3 0 9995

TLE line 2: 2 17268 82.6135 168.6132 0028708 122.8938 1.1484 13.98056655958352

Live tracking on map

Real-time ground track for satellite SL-14 DEB.

In-orbit conjunctions

A list of the most updated potential collisions computed for object SL-14 DEB.

Target Orbit TCA Probability of collision Miss distance Type
CZ-4C R/B LEO 2025-04-16 22:18:00 0.0002373862 906.0 (m) ROCKET BODY
FENGYUN 1C DEB SSO 2024-11-14 17:38:54 0.0001290754 730.0 (m) DEBRIS
FENGYUN 1C DEB SSO 2024-11-12 00:23:48 0.0001209547 73.0 (m) DEBRIS

Associated space launch

Ionospheric research satellite

SL-14 DEB was lifted into orbit during the mission ‘Tsiklon-3 | Ionozond-E’, on board a Tsiklon-3 space rocket.

The launch took place on Dec. 18, 1986, 8 a.m. from 32/2.

For more information about the launch, click the button.

Launch to space Tsiklon-3 | Ionozond-E
Tsiklon-3 | Ionozond-E

Agency: N/A

Status: Launch Successful

Launch date: Dec. 18, 1986, 8 a.m. UTC

Rocket: Tsiklon-3

Launch pad: 32/2

Location: Plesetsk Cosmodrome, Russian Federation

...

Latest news about this satellite

There are no fresh news available about this satellite. Check back as we update our databases every day.


Newsletter sign-up

Weekly statistics, charts and insights to help you stay on top of the space industry.